(237029) = 2006 BO124 = 2008 SL67

Discovered at Kitt Peak on 2008-09-21 by Spacewatch.

Orbit

Orbit type: Main Belt

Note: WebGL enabled browser required.

epoch2023-02-25.0
epoch JD2460000.5
perihelion date2020-04-28.27530
perihelion JD2458967.77530
argument of perihelion (°)294.28403
ascending node (°)8.92566
inclination (°)1.73100
eccentricity0.0303768
perihelion distance (AU)2.5116840
Tisserand w.r.t. Jupiter3.4
ΔV w.r.t. Earth (km/sec)9.9
semimajor axis (AU)2.5903712
mean anomaly (°)244.14363
mean daily motion (°/day)0.23640730
aphelion distance (AU)2.669
period (years)4.17
P-vector [x]0.54764019
P-vector [y]-0.75630177
P-vector [z]-0.35790760
Q-vector [x]0.83670081
Q-vector [y]0.49739760
Q-vector [z]0.22918851
absolute magnitude17.21
phase slope0.15
uncertainty0
referenceMPO 745323
observations used288
oppositions13
arc length (days)6777
first opposition used2004
last opposition used2023
residual rms (arc-secs)0.76
perturbers coarse indicatorM-v
perturbers precise indicator003Ek
first observation date used2004-10-23.0
last observation date used2023-05-14.0
computer nameMPCLINUX
JD of orbit computation2456700.397118
perihelion JD uncertainty (days)4.3868E-04
argument of perihelion uncertainty (°)1.6384E-04
ascending node uncertainty (°)1.2790E-04
inclination uncertainty (°)5.6463E-06
eccentricity uncertainty 4.8054E-08
perihelion distance uncertainty (AU)1.2798E-07
Minimum Orbit Intersection Distances (in AU)
for orbit epoch: 2460000.5, reference: E2023-JF5
Mercury2.05932
Venus1.78364
Earth1.49588
Mars0.98076
Jupiter2.37829
Saturn6.40833
Uranus15.7926
Neptune27.2693

Observations

282 total observations over interval: 2004 10 23.39398 – 2023 05 14.296277
These data are available for download (format description).

Date (UT) J2000 RA J2000 Dec Magn Location Ref
2004 10 23.39398 03 36 45.96 +21 03 59.6 20.8 V 691 – Steward Observatory, Kitt Peak-Spacewatch MPS 259381
2004 10 23.42251 03 36 44.61 +21 03 56.8 21.0 V 691 – Steward Observatory, Kitt Peak-Spacewatch MPS 259381
2004 10 23.46303 03 36 42.72 +21 03 52.8 20.8 V 691 – Steward Observatory, Kitt Peak-Spacewatch MPS 259381
2006 01 26.37577 11 01 48.84 +07 56 38.7 21.7 V 691 – Steward Observatory, Kitt Peak-Spacewatch MPS 162021
2006 01 26.39312 11 01 48.35 +07 56 41.6 21.7 V 691 – Steward Observatory, Kitt Peak-Spacewatch MPS 162021
2006 01 26.41048 11 01 47.91 +07 56 44.6 21.5 V 691 – Steward Observatory, Kitt Peak-Spacewatch MPS 162021
2006 01 30.40092 10 59 52.35 +08 08 27.0 21.2 V 691 – Steward Observatory, Kitt Peak-Spacewatch MPS 162021
2006 01 30.41823 10 59 51.79 +08 08 30.3 21.3 V 691 – Steward Observatory, Kitt Peak-Spacewatch MPS 162021
2006 01 30.43549 10 59 51.18 +08 08 33.6 21.2 V 691 – Steward Observatory, Kitt Peak-Spacewatch MPS 162021
2006 02 25.27411 10 39 59.25 +10 01 03.7 20.6 V G96 – Mt. Lemmon Survey MPS 259381
2006 02 25.27961 10 39 58.93 +10 01 05.4 20.4 V G96 – Mt. Lemmon Survey MPS 259381
2006 02 25.28546 10 39 58.60 +10 01 07.3 20.8 V G96 – Mt. Lemmon Survey MPS 259381
2006 02 25.29096 10 39 58.32 +10 01 08.9 20.9 V G96 – Mt. Lemmon Survey MPS 259381
2006 03 24.21594 10 17 56.97 +11 48 45.2 21.2 V G96 – Mt. Lemmon Survey MPS 259381
2006 03 24.22234 10 17 56.72 +11 48 45.9 21.9 V G96 – Mt. Lemmon Survey MPS 259381
2006 03 24.22865 10 17 56.50 +11 48 46.7 21.6 V G96 – Mt. Lemmon Survey MPS 259381
2006 03 24.23454 10 17 56.18 +11 48 47.5 21.1 V G96 – Mt. Lemmon Survey MPS 259381
2008 09 21.40581 02 28 20.77 +15 23 08.4 21.0 V 691 – Steward Observatory, Kitt Peak-Spacewatch MPS 258146
2008 09 21.42342 02 28 20.33 +15 23 07.7 21.0 V 691 – Steward Observatory, Kitt Peak-Spacewatch MPS 258146
2008 09 21.44105 02 28 19.90 +15 23 06.1 21.0 V 691 – Steward Observatory, Kitt Peak-Spacewatch MPS 258146
2008 09 22.35392 02 27 58.39 +15 22 08.0 20.3 V G96 – Mt. Lemmon Survey MPS 258146
2008 09 22.36348 02 27 58.14 +15 22 07.5 20.6 V G96 – Mt. Lemmon Survey MPS 258146
2008 09 22.37309 02 27 57.88 +15 22 06.4 20.3 V G96 – Mt. Lemmon Survey MPS 258146
2008 09 22.38269 02 27 57.63 +15 22 06.0 20.3 V G96 – Mt. Lemmon Survey MPS 258146
2008 09 25.39978 02 26 36.22 +15 18 08.1 21.0 V 691 – Steward Observatory, Kitt Peak-Spacewatch MPS 258146
2008 09 25.41740 02 26 35.67 +15 18 06.7 20.9 V 691 – Steward Observatory, Kitt Peak-Spacewatch MPS 258146
2008 09 25.43849 02 26 34.99 +15 18 04.7 20.5 V 691 – Steward Observatory, Kitt Peak-Spacewatch MPS 258146
2008 10 03.36133 02 21 55.55 +15 02 03.0   691 – Steward Observatory, Kitt Peak-Spacewatch MPS 259381
2008 10 03.37895 02 21 54.85 +15 02 00.8   691 – Steward Observatory, Kitt Peak-Spacewatch MPS 259381
2008 10 03.39657 02 21 54.02 +15 01 57.5   691 – Steward Observatory, Kitt Peak-Spacewatch MPS 259381
2008 10 07.38411 02 19 01.30 +14 51 00.8 20.6 V 691 – Steward Observatory, Kitt Peak-Spacewatch MPS 259381
2008 10 07.40177 02 19 00.43 +14 50 57.8 20.6 V 691 – Steward Observatory, Kitt Peak-Spacewatch MPS 259381
2008 10 07.41941 02 18 59.61 +14 50 54.7 20.7 V 691 – Steward Observatory, Kitt Peak-Spacewatch MPS 259381
2008 11 07.09862 01 51 46.54 +12 49 00.2 20.7 V 691 – Steward Observatory, Kitt Peak-Spacewatch MPS 263344
2008 11 07.11625 01 51 45.64 +12 48 56.3 20.5 V 691 – Steward Observatory, Kitt Peak-Spacewatch MPS 263344
2008 11 07.13384 01 51 44.71 +12 48 51.5 20.6 V 691 – Steward Observatory, Kitt Peak-Spacewatch MPS 263344
2008 11 18.08503 01 43 37.85 +12 07 56.3 20.8 V 691 – Steward Observatory, Kitt Peak-Spacewatch MPS 265304
2008 11 18.09821 01 43 37.35 +12 07 53.5 20.5 V 691 – Steward Observatory, Kitt Peak-Spacewatch MPS 265304
2008 11 18.11139 01 43 36.84 +12 07 50.9 20.7 V 691 – Steward Observatory, Kitt Peak-Spacewatch MPS 265304
2008 12 04.19969 01 36 43.20 +11 31 35.4 21.1 V G96 – Mt. Lemmon Survey MPS 267601
2008 12 04.20921 01 36 43.05 +11 31 34.8 20.9 V G96 – Mt. Lemmon Survey MPS 267601
2008 12 04.21881 01 36 42.91 +11 31 33.8 20.8 V G96 – Mt. Lemmon Survey MPS 267601
2008 12 04.22833 01 36 42.80 +11 31 33.7 21.2 V G96 – Mt. Lemmon Survey MPS 267601
2010 02 11.515066 09 29 14.429 +17 01 33.41 21.20 g F51 – Pan-STARRS 1, Haleakala MPS 338873
2010 02 11.524314 09 29 13.891 +17 01 35.47 21.51 g F51 – Pan-STARRS 1, Haleakala MPS 338873
2010 02 13.352059 09 27 28.800 +17 08 59.19 21.72 g F51 – Pan-STARRS 1, Haleakala MPS 319394
2010 02 13.362034 09 27 28.204 +17 09 01.79 21.46 g F51 – Pan-STARRS 1, Haleakala MPS 319394
2010 02 17.37881 09 23 39.58 +17 24 30.8 20.7 V G96 – Mt. Lemmon Survey MPS 313461
2010 02 17.38333 09 23 39.30 +17 24 32.0 20.8 V G96 – Mt. Lemmon Survey MPS 313461
2010 02 17.38789 09 23 39.04 +17 24 33.0 21.1 V G96 – Mt. Lemmon Survey MPS 313461
2010 02 17.39245 09 23 38.79 +17 24 33.7 20.7 V G96 – Mt. Lemmon Survey MPS 313461
2010 03 14.21495 09 05 34.69 +18 24 49.5 21.9 V G96 – Mt. Lemmon Survey MPS 318001
2010 03 14.22089 09 05 34.47 +18 24 50.5 22.0 V G96 – Mt. Lemmon Survey MPS 318001
2010 03 14.22683 09 05 34.29 +18 24 50.5 21.0 V G96 – Mt. Lemmon Survey MPS 318001
2010 03 14.23282 09 05 34.18 +18 24 50.8 21.4 V G96 – Mt. Lemmon Survey MPS 318001
2011 05 30.41096 16 40 51.887 -24 44 59.48 20.8 g F51 – Pan-STARRS 1, Haleakala MPS 384599
2011 05 30.42597 16 40 50.951 -24 44 58.05 20.9 g F51 – Pan-STARRS 1, Haleakala MPS 384599
2011 05 30.44192 16 40 49.983 -24 44 57.00 20.4 r F51 – Pan-STARRS 1, Haleakala MPS 384599
2011 05 30.45621 16 40 49.088 -24 44 55.74 20.1 r F51 – Pan-STARRS 1, Haleakala MPS 384599
2012 09 22.25570 01 02 50.60 +06 45 01.8 20.2 V 691 – Steward Observatory, Kitt Peak-Spacewatch MPS 433992
2012 09 22.27343 01 02 49.60 +06 44 57.6 20.6 V 691 – Steward Observatory, Kitt Peak-Spacewatch MPS 433992
2012 09 22.29117 01 02 48.75 +06 44 53.4 20.6 V 691 – Steward Observatory, Kitt Peak-Spacewatch MPS 433992
2012 10 04.32479 00 52 34.21 +05 50 35.9 20.1 V G96 – Mt. Lemmon Survey MPS 434841
2012 10 04.33161 00 52 33.85 +05 50 34.0 19.4 V G96 – Mt. Lemmon Survey MPS 434841
2012 10 04.33851 00 52 33.42 +05 50 31.9 19.8 V G96 – Mt. Lemmon Survey MPS 434841
2012 10 04.34542 00 52 33.06 +05 50 30.1 20.1 V G96 – Mt. Lemmon Survey MPS 434841
2012 10 09.345850 00 48 06.757 +05 26 26.86 20.3 w F51 – Pan-STARRS 1, Haleakala MPS 437589
2012 10 09.359962 00 48 05.988 +05 26 22.80 20.2 w F51 – Pan-STARRS 1, Haleakala MPS 437589
2012 10 09.374169 00 48 05.207 +05 26 18.65 20.1 w F51 – Pan-STARRS 1, Haleakala MPS 437589
2012 10 09.388488 00 48 04.418 +05 26 14.51 20.2 w F51 – Pan-STARRS 1, Haleakala MPS 437589
2012 10 11.297149 00 46 23.835 +05 17 05.18 21.0 g F51 – Pan-STARRS 1, Haleakala MPS 437589
2012 10 11.309434 00 46 23.151 +05 17 01.79 20.8 g F51 – Pan-STARRS 1, Haleakala MPS 437589
2012 10 14.13659 00 43 55.97 +05 03 39.3 20.2 R J04 – ESA Optical Ground Station, Tenerife MPS 437589
2012 10 14.14318 00 43 55.62 +05 03 37.3 20.3 R J04 – ESA Optical Ground Station, Tenerife MPS 437589
2012 10 14.14978 00 43 55.28 +05 03 35.5 20.3 R J04 – ESA Optical Ground Station, Tenerife MPS 437589
2012 10 22.24952 00 37 23.66 +04 27 49.2 20.7 V G96 – Mt. Lemmon Survey MPS 439272
2012 10 22.25519 00 37 23.44 +04 27 47.7 20.5 V G96 – Mt. Lemmon Survey MPS 439272
2012 10 22.26094 00 37 23.16 +04 27 46.0 20.8 V G96 – Mt. Lemmon Survey MPS 439272
2012 10 22.26661 00 37 22.90 +04 27 45.1 20.8 V G96 – Mt. Lemmon Survey MPS 439272
2012 11 05.281988 00 28 51.907 +03 41 44.87 21.0 w F51 – Pan-STARRS 1, Haleakala MPS 441360
2012 11 05.297126 00 28 51.463 +03 41 42.71 21.0 w F51 – Pan-STARRS 1, Haleakala MPS 441360
2012 11 05.312212 00 28 51.035 +03 41 40.73 21.2 w F51 – Pan-STARRS 1, Haleakala MPS 441360
2012 11 05.327297 00 28 50.586 +03 41 38.59 20.9 w F51 – Pan-STARRS 1, Haleakala MPS 441360
2012 11 12.18919 00 26 21.26 +03 29 06.5 21.6 V G96 – Mt. Lemmon Survey MPS 443202
2012 11 12.19698 00 26 21.04 +03 29 04.8 21.3 V G96 – Mt. Lemmon Survey MPS 443202
2012 11 12.20481 00 26 20.97 +03 29 04.5 21.1 V G96 – Mt. Lemmon Survey MPS 443202
2012 11 12.21264 00 26 20.83 +03 29 04.2 20.7 V G96 – Mt. Lemmon Survey MPS 443202
